Home   Weather   Leimen   Past weeks

Flag for Germany Past Weather in Leimen, Baden-Württemberg, Germany — Yesterday and Last 2 Weeks

Now
50 °F

Light rain. Broken clouds.


Feels Like: 44 °F
Forecast: 45 / 53 °F
Wind: 17 mph from Southwest

Location: Frankfurt-M-Flughafen Airport

Current Time: Feb 22, 2017 at 9:51:14 am

Latest Report: Feb 22, 2017 at 9:20 am


Visibility: N/A

Pressure: 29.83 "Hg

Humidity: 88%

Dew Point: 46 °F

Location of LeimenLocation

Past Weather in Leimen — Graph

°F

Leimen Temperature Yesterday

Maximum temperature yesterday: 54 °F (at 12:50 pm)
Minimum temperature yesterday: 50 °F (at 12:20 am)
Average temperature yesterday: 51 °F

High & Low Weather Summary for the Past Weeks

 TemperatureHumidityPressure
High54 °F (Feb 16, 2:20 pm)100% (Feb 16, 3:50 am)30.60 "Hg (Feb 16, 3:50 am)
Low25 °F (Feb 15, 6:20 am)40% (Feb 14, 3:20 pm)29.86 "Hg (Feb 22, 4:50 am)
Average40 °F77%30.25 "Hg
* Reported Feb 7 8:20 am — Feb 22 8:50 am, Leimen, Weather by CustomWeather, © 2017

Note: Actual official high and low records may vary slightly from our data, if they occured in-between our weather recording intervals... More about our weather records

Advertising

Leimen Weather History for the Previous 24 Hours

Scroll right to see more
 ConditionsComfort  
Time TempWeatherWind HumidityBarometerVisibility
8:50 am
Wed, Feb 22
52 °FPartly sunny.17 mph77%29.86 "HgN/A
8:20 am52 °FPartly sunny.17 mph82%29.86 "HgN/A
7:50 am50 °FDrizzle. Broken clouds.16 mph88%29.86 "HgN/A
7:20 am52 °FLight rain. Partly cloudy.18 mph82%29.86 "HgN/A
6:50 am52 °FLight rain. Passing clouds.15 mph82%29.86 "HgN/A
6:20 am52 °FLight rain. Passing clouds.18 mph88%29.86 "HgN/A
5:50 am52 °FLight rain. Passing clouds.16 mph88%29.86 "HgN/A
5:20 am52 °FLight rain. Passing clouds.16 mph88%29.86 "HgN/A
4:50 am50 °FPartly cloudy.13 mph94%29.86 "HgN/A
4:20 am50 °FLight rain. Passing clouds.16 mph94%29.89 "Hg5 mi
3:50 am50 °FLight rain. Passing clouds.15 mph94%29.89 "HgN/A
3:20 am50 °FPartly cloudy.16 mph94%29.89 "Hg3 mi
2:50 am50 °FDrizzle. Mostly cloudy.12 mph94%29.92 "Hg3 mi
2:20 am50 °FPassing clouds.10 mph94%29.92 "Hg3 mi
1:50 am50 °FLight rain. Passing clouds.10 mph94%29.92 "HgN/A
1:20 am50 °FLight rain. Passing clouds.13 mph88%29.95 "HgN/A
12:50 am50 °FLight rain. Overcast.12 mph88%29.95 "HgN/A
12:20 am50 °FPassing clouds.10 mph88%29.95 "HgN/A
11:50 pm
Tue, Feb 21
50 °FPassing clouds.12 mph88%29.98 "HgN/A
11:20 pm50 °FPassing clouds.12 mph88%29.98 "HgN/A
10:50 pm50 °FPartly cloudy.14 mph88%29.98 "HgN/A
10:20 pm50 °FPassing clouds.10 mph82%29.98 "HgN/A
9:50 pm50 °FPassing clouds.12 mph88%29.98 "HgN/A
9:20 pm50 °FPassing clouds.12 mph88%29.98 "HgN/A
8:50 pm50 °FPassing clouds.13 mph94%29.98 "HgN/A
8:20 pm50 °FPassing clouds.12 mph94%30.01 "HgN/A
7:50 pm50 °FSprinkles. Partly cloudy.13 mph94%30.01 "HgN/A
7:20 pm50 °FScattered showers. Partly cloudy.9 mph94%30.01 "HgN/A
6:50 pm50 °FSprinkles. Partly cloudy.5 mph94%30.01 "HgN/A
6:20 pm50 °FPartly cloudy.6 mph88%30.01 "HgN/A
5:50 pm50 °FScattered showers. Broken clouds.7 mph88%30.01 "HgN/A
5:20 pm52 °FScattered showers. Partly sunny.7 mph82%30.01 "HgN/A
4:50 pm52 °FBroken clouds.8 mph82%30.01 "HgN/A
4:20 pm52 °FScattered showers. Broken clouds.7 mph82%30.01 "HgN/A
3:50 pm52 °FScattered showers. Broken clouds.8 mph82%30.01 "HgN/A
3:20 pm50 °FScattered showers. Partly sunny.6 mph94%30.01 "HgN/A
2:50 pm52 °FSprinkles. Partly sunny.7 mph82%30.01 "HgN/A
2:20 pm52 °FSprinkles. Broken clouds.9 mph77%30.01 "HgN/A
1:50 pm52 °FScattered showers. Broken clouds.12 mph77%30.01 "HgN/A
1:20 pm54 °FSprinkles. Broken clouds.13 mph72%30.01 "HgN/A
12:50 pm54 °FBroken clouds.10 mph77%30.01 "HgN/A
12:20 pm52 °FBroken clouds.7 mph82%30.01 "HgN/A
11:50 am52 °FBroken clouds.5 mph82%30.01 "HgN/A
11:20 am52 °FPartly sunny.7 mph88%30.01 "HgN/A
10:50 am52 °FPartly sunny.3 mph88%30.01 "HgN/A
10:20 am52 °FPartly sunny.7 mph88%29.98 "HgN/A
9:50 am50 °FBroken clouds.7 mph94%29.98 "HgN/A
9:20 am50 °FBroken clouds.6 mph94%29.98 "HgN/A
Weather by CustomWeather, © 2017

See weather overviewHow to use our weather pages